Погода в Марш Харбор

Багамские острова     26°30′49″N   77°04′59″W
темп.,
°C
ветер,
м/с
пор.,
м/с
влажн.,
%
обл.,
%
осадки,
мм/ч
давл.,
гПа
погр.,
м
25 февраля, чт
чт2501:00+23юв568752 0.1 1021468
04:00+23юв34830 0.0 1020456
07:00+23юв34820 0.0 1021448
10:00+24юв33780 0.0 1022630
13:00+24юв557914 0.8 1021483
16:00+24юв4478100 1.8 1020466
19:00+24юв338176 2.0 1021405
22:00+24юв348233 0.2 1022440
26 февраля, пт
пт2601:00+23юв448217 0.3 1021483
04:00+23юв45830 0.0 1019434
07:00+23юв56831 0.1 1021492
10:00+24юв667911 0.1 1022706
13:00+24юв66766 0.1 1022694
16:00+24вюв56770 0.0 1020729
19:00+24вюв56810 0.0 1022677
22:00+24вюв78830 0.0 1022734
27 февраля, сб
сб2701:00+24вюв79830 0.0 1022734
04:00+24вюв79845 0.1 1022721
07:00+24вюв68832 0.1 1023693
10:00+24вюв79810 0.1 1024778
13:00+25вюв89810 0.3 1023766
16:00+24юв8107815 0.3 1022880
19:00+24вюв79807 0.3 1024795
22:00+24вюв79820 0.0 1024911
28 февраля, вс
вс2801:00+24вюв810811 0.0 1024852
04:00+24вюв89808 0.1 1023965
07:00+24вюв810788 0.1 10231012
10:00+24вюв8107819 0.1 1024882
13:00+25вюв8107826 0.1 1023900
16:00+25вюв89786 0.1 1022864
19:00+24вюв79813 0.1 1022840
22:00+24юв89822 0.0 1022778
1 марта, пн
пн101:00+23юв78824 0.1 1021768
04:00+23юв678147 0.1 1020747
07:00+23юв677940 0.1 1020761
10:00+24ююв557242 0.0 1022991
13:00+25ююв567138 0.0 1020645
16:00+25ююв457230 0.0 1018478
19:00+24ю347522 0.0 1019473
22:00+23ю23760 0.0 1020385